Hourly Weather Paro

Today, 26 October, Monday

Time Temperature Precipitation Wind Pressure Humidity
00:00 +11°C° 0 mm 1 mps 561 mmHg 93%
01:00 +10°C° 0 mm 1 mps 561 mmHg 92%
02:00 +10°C° 0 mm 1 mps 561 mmHg 92%
03:00 +10°C° 0 mm 1 mps 561 mmHg 91%
04:00 +9°C° 0 mm 1 mps 561 mmHg 90%
05:00 +9°C° 0 mm 1 mps 561 mmHg 89%
06:00 +8°C° 0 mm 2 mps 561 mmHg 88%
07:00 +12°C° 0 mm 1 mps 562 mmHg 80%
08:00 +15°C° 0 mm 1 mps 564 mmHg 71%
09:00 +18°C° 0 mm 1 mps 565 mmHg 63%
10:00 +18°C° 0.1 mm 2 mps 565 mmHg 61%
11:00 +19°C° 0.1 mm 2 mps 565 mmHg 59%
12:00 +19°C° 0.1 mm 3 mps 565 mmHg 57%
13:00 +19°C° 0.3 mm 3 mps 564 mmHg 61%
14:00 +18°C° 0.3 mm 3 mps 563 mmHg 66%
15:00 +18°C° 0.3 mm 2 mps 562 mmHg 70%
16:00 +16°C° 0.1 mm 2 mps 562 mmHg 79%
17:00 +14°C° 0.1 mm 1 mps 561 mmHg 88%
18:00 +11°C° 0.1 mm 1 mps 560 mmHg 96%
19:00 +11°C° 0.1 mm 1 mps 560 mmHg 95%
20:00 +11°C° 0.1 mm 1 mps 561 mmHg 94%
21:00 +10°C° 0.1 mm 1 mps 561 mmHg 93%
22:00 +10°C° 0 mm 1 mps 561 mmHg 93%
23:00 +10°C° 0 mm 1 mps 561 mmHg 93%

Tomorrow, 27 October, Tuesday

Time Temperature Precipitation Wind Pressure Humidity
00:00 +10°C° 0 mm 1 mps 561 mmHg 92%
01:00 +10°C° 0 mm 1 mps 560 mmHg 92%
02:00 +9°C° 0 mm 1 mps 560 mmHg 92%
03:00 +9°C° 0 mm 1 mps 559 mmHg 92%
04:00 +9°C° 0 mm 1 mps 559 mmHg 91%
05:00 +8°C° 0 mm 1 mps 560 mmHg 90%
06:00 +8°C° 0 mm 1 mps 560 mmHg 89%
07:00 +11°C° 0 mm 1 mps 561 mmHg 78%
08:00 +14°C° 0 mm 1 mps 563 mmHg 68%
09:00 +16°C° 0 mm 1 mps 565 mmHg 57%
10:00 +17°C° 0 mm 2 mps 565 mmHg 52%
11:00 +18°C° 0 mm 2 mps 565 mmHg 47%
12:00 +19°C° 0 mm 3 mps 565 mmHg 43%
13:00 +19°C° 0.1 mm 3 mps 564 mmHg 47%
14:00 +18°C° 0.1 mm 3 mps 563 mmHg 52%
15:00 +17°C° 0.1 mm 3 mps 562 mmHg 56%
16:00 +15°C° 0.1 mm 2 mps 561 mmHg 69%
17:00 +12°C° 0.1 mm 1 mps 560 mmHg 81%
18:00 +9°C° 0.1 mm 0 mps 559 mmHg 93%
19:00 +9°C° 0 mm 1 mps 559 mmHg 92%
20:00 +9°C° 0 mm 1 mps 560 mmHg 90%
21:00 +9°C° 0 mm 1 mps 560 mmHg 88%
22:00 +9°C° 0 mm 1 mps 560 mmHg 88%
23:00 +8°C° 0 mm 1 mps 560 mmHg 88%

Day after tomorrow, 28 October, Wednesday

Time Temperature Precipitation Wind Pressure Humidity
00:00 +8°C° 0 mm 1 mps 560 mmHg 87%
01:00 +8°C° 0 mm 1 mps 559 mmHg 85%
02:00 +8°C° 0 mm 1 mps 559 mmHg 83%
03:00 +7°C° 0 mm 2 mps 559 mmHg 82%
04:00 +7°C° 0 mm 2 mps 559 mmHg 78%
05:00 +7°C° 0 mm 2 mps 559 mmHg 75%
06:00 +7°C° 0 mm 2 mps 560 mmHg 72%
07:00 +11°C° 0 mm 1 mps 562 mmHg 62%
08:00 +14°C° 0 mm 1 mps 564 mmHg 53%
09:00 +19°C° 0 mm 1 mps 566 mmHg 43%
10:00 +19°C° 0 mm 2 mps 566 mmHg 40%
11:00 +20°C° 0 mm 2 mps 566 mmHg 37%
12:00 +21°C° 0 mm 3 mps 566 mmHg 33%
13:00 +20°C° 0 mm 3 mps 565 mmHg 39%
14:00 +20°C° 0 mm 3 mps 565 mmHg 44%
15:00 +19°C° 0 mm 3 mps 564 mmHg 50%
16:00 +16°C° 0 mm 2 mps 563 mmHg 64%
17:00 +14°C° 0 mm 1 mps 562 mmHg 78%
18:00 +11°C° 0 mm 1 mps 560 mmHg 92%
19:00 +11°C° 0 mm 1 mps 561 mmHg 90%
20:00 +10°C° 0 mm 1 mps 561 mmHg 89%
21:00 +10°C° 0 mm 1 mps 561 mmHg 87%
22:00 +10°C° 0 mm 1 mps 561 mmHg 86%
23:00 +9°C° 0 mm 1 mps 561 mmHg 84%

29 October, Thursday

Time Temperature Precipitation Wind Pressure Humidity
00:00 +8°C° 0 mm 2 mps 561 mmHg 82%
01:00 +8°C° 0 mm 2 mps 561 mmHg 80%
02:00 +7°C° 0 mm 2 mps 560 mmHg 77%
03:00 +7°C° 0 mm 2 mps 560 mmHg 75%
04:00 +7°C° 0 mm 2 mps 560 mmHg 72%
05:00 +7°C° 0 mm 2 mps 561 mmHg 69%
06:00 +6°C° 0 mm 2 mps 561 mmHg 66%
07:00 +10°C° 0 mm 2 mps 563 mmHg 53%
08:00 +14°C° 0 mm 1 mps 565 mmHg 41%
09:00 +19°C° 0 mm 1 mps 567 mmHg 29%
10:00 +20°C° 0 mm 1 mps 567 mmHg 26%
11:00 +20°C° 0 mm 2 mps 567 mmHg 23%
12:00 +21°C° 0 mm 3 mps 567 mmHg 20%
13:00 +20°C° 0 mm 3 mps 566 mmHg 24%
14:00 +20°C° 0 mm 3 mps 566 mmHg 27%
15:00 +20°C° 0 mm 3 mps 565 mmHg 31%
16:00 +16°C° 0 mm 2 mps 563 mmHg 46%
17:00 +13°C° 0 mm 1 mps 562 mmHg 61%
18:00 +10°C° 0 mm 1 mps 561 mmHg 76%
19:00 +10°C° 0 mm 1 mps 561 mmHg 74%
20:00 +9°C° 0 mm 1 mps 561 mmHg 72%
21:00 +8°C° 0 mm 2 mps 561 mmHg 69%
22:00 +8°C° 0 mm 2 mps 561 mmHg 68%
23:00 +7°C° 0 mm 2 mps 561 mmHg 67%

30 October, Friday

Time Temperature Precipitation Wind Pressure Humidity
00:00 +7°C° 0 mm 2 mps 561 mmHg 66%
01:00 +7°C° 0 mm 2 mps 561 mmHg 64%
02:00 +7°C° 0 mm 2 mps 560 mmHg 62%
03:00 +7°C° 0 mm 2 mps 560 mmHg 60%
04:00 +6°C° 0 mm 2 mps 560 mmHg 57%
05:00 +6°C° 0 mm 2 mps 560 mmHg 55%
06:00 +6°C° 0 mm 2 mps 560 mmHg 53%
07:00 +10°C° 0 mm 2 mps 562 mmHg 44%
08:00 +14°C° 0 mm 1 mps 564 mmHg 36%
09:00 +18°C° 0 mm 1 mps 566 mmHg 28%
10:00 +20°C° 0 mm 1 mps 566 mmHg 27%
11:00 +20°C° 0 mm 2 mps 566 mmHg 27%
12:00 +21°C° 0 mm 2 mps 566 mmHg 27%
13:00 +20°C° 0 mm 3 mps 565 mmHg 31%
14:00 +20°C° 0 mm 3 mps 564 mmHg 35%
15:00 +19°C° 0 mm 3 mps 564 mmHg 39%
16:00 +16°C° 0 mm 2 mps 562 mmHg 54%
17:00 +13°C° 0 mm 1 mps 561 mmHg 70%
18:00 +10°C° 0 mm 1 mps 560 mmHg 85%
19:00 +10°C° 0 mm 1 mps 560 mmHg 84%
20:00 +9°C° 0 mm 1 mps 560 mmHg 84%
21:00 +9°C° 0 mm 1 mps 561 mmHg 83%
22:00 +9°C° 0 mm 1 mps 560 mmHg 83%
23:00 +9°C° 0 mm 1 mps 560 mmHg 83%

31 October, Saturday

Time Temperature Precipitation Wind Pressure Humidity
00:00 +9°C° 0 mm 1 mps 560 mmHg 83%
01:00 +8°C° 0 mm 1 mps 560 mmHg 82%
02:00 +7°C° 0 mm 2 mps 560 mmHg 81%
03:00 +7°C° 0 mm 2 mps 560 mmHg 80%
04:00 +7°C° 0 mm 2 mps 560 mmHg 78%
05:00 +7°C° 0 mm 2 mps 560 mmHg 76%
06:00 +6°C° 0 mm 2 mps 560 mmHg 74%
07:00 +11°C° 0 mm 1 mps 562 mmHg 62%
08:00 +14°C° 0 mm 1 mps 564 mmHg 49%
09:00 +18°C° 0 mm 1 mps 566 mmHg 37%
10:00 +19°C° 0 mm 2 mps 566 mmHg 35%
11:00 +20°C° 0 mm 2 mps 566 mmHg 33%
12:00 +21°C° 0 mm 3 mps 566 mmHg 30%
Show more